Time,TemperatureF,DewpointF,PressureIn,WindDirection,WindDirectionDegrees,WindSpeedMPH,WindSpeedGustMPH,Humidity,HourlyPrecipIn,Conditions,Clouds,dailyrainin,SoftwareType,DateUTC
2013-01-30 00:01:00,48.0,44.0,-100.00,SE,140,4.0,-999.0,86,0.00,,,-99.99,,2013-01-30 08:01:00,
2013-01-30 00:11:00,48.0,44.0,-100.00,SE,140,4.0,-999.0,86,0.00,,,-99.99,,2013-01-30 08:11:00,
2013-01-30 00:21:00,48.0,44.0,-100.00,SE,140,4.0,-999.0,86,0.00,,,-99.99,,2013-01-30 08:21:00,
2013-01-30 00:32:00,48.0,44.0,-100.00,SE,140,4.0,-999.0,86,0.00,,,-99.99,,2013-01-30 08:32:00,
2013-01-30 00:41:00,48.0,44.0,-100.00,SE,140,4.0,-999.0,86,0.00,,,-99.99,,2013-01-30 08:41:00,
2013-01-30 01:01:00,47.0,43.0,-100.00,ESE,122,4.0,-999.0,86,0.00,,,-99.99,,2013-01-30 09:01:00,
2013-01-30 01:11:00,47.0,43.0,-100.00,ESE,122,4.0,-999.0,86,0.00,,,-99.99,,2013-01-30 09:11:00,
2013-01-30 01:21:00,47.0,43.0,-100.00,ESE,122,4.0,-999.0,86,0.00,,,-99.99,,2013-01-30 09:21:00,
2013-01-30 01:31:00,47.0,43.0,-100.00,ESE,122,4.0,-999.0,86,0.00,,,-99.99,,2013-01-30 09:31:00,
2013-01-30 01:41:00,47.0,43.0,-100.00,ESE,122,4.0,-999.0,86,0.00,,,-99.99,,2013-01-30 09:41:00,
2013-01-30 02:01:00,44.0,41.0,-100.00,SSE,147,4.0,-999.0,90,0.00,,,-99.99,,2013-01-30 10:01:00,
2013-01-30 02:11:00,44.0,41.0,-100.00,SSE,147,4.0,-999.0,90,0.00,,,-99.99,,2013-01-30 10:11:00,
2013-01-30 02:21:00,44.0,41.0,-100.00,SSE,147,4.0,-999.0,90,0.00,,,-99.99,,2013-01-30 10:21:00,
2013-01-30 02:31:00,44.0,41.0,-100.00,SSE,147,4.0,-999.0,90,0.00,,,-99.99,,2013-01-30 10:31:00,
2013-01-30 02:41:00,44.0,41.0,-100.00,SSE,147,4.0,-999.0,90,0.00,,,-99.99,,2013-01-30 10:41:00,
2013-01-30 03:02:00,45.0,41.0,-100.00,SE,141,5.0,-999.0,86,0.00,,,-99.99,,2013-01-30 11:02:00,
2013-01-30 03:11:00,45.0,41.0,-100.00,SE,141,5.0,-999.0,86,0.00,,,-99.99,,2013-01-30 11:11:00,
2013-01-30 03:21:00,45.0,41.0,-100.00,SE,141,5.0,-999.0,86,0.00,,,-99.99,,2013-01-30 11:21:00,
2013-01-30 03:32:00,45.0,41.0,-100.00,SE,141,5.0,-999.0,86,0.00,,,-99.99,,2013-01-30 11:32:00,
2013-01-30 03:41:00,45.0,41.0,-100.00,SE,141,5.0,-999.0,86,0.00,,,-99.99,,2013-01-30 11:41:00,
2013-01-30 04:02:00,41.0,38.0,-100.00,NE,55,5.0,-999.0,89,0.00,,,-99.99,,2013-01-30 12:02:00,
2013-01-30 04:12:00,41.0,38.0,-100.00,NE,55,5.0,-999.0,89,0.00,,,-99.99,,2013-01-30 12:12:00,
2013-01-30 04:22:00,41.0,38.0,-100.00,NE,55,5.0,-999.0,89,0.00,,,-99.99,,2013-01-30 12:22:00,
2013-01-30 04:32:00,41.0,38.0,-100.00,NE,55,5.0,-999.0,89,0.00,,,-99.99,,2013-01-30 12:32:00,
2013-01-30 04:42:00,41.0,38.0,-100.00,NE,55,5.0,-999.0,89,0.00,,,-99.99,,2013-01-30 12:42:00,
2013-01-30 05:02:00,43.0,41.0,-100.00,ESE,108,2.0,-999.0,90,0.00,,,-99.99,,2013-01-30 13:02:00,
2013-01-30 05:12:00,43.0,41.0,-100.00,ESE,108,2.0,-999.0,90,0.00,,,-99.99,,2013-01-30 13:12:00,
2013-01-30 05:22:00,43.0,41.0,-100.00,ESE,108,2.0,-999.0,90,0.00,,,-99.99,,2013-01-30 13:22:00,
2013-01-30 05:32:00,43.0,41.0,-100.00,ESE,108,2.0,-999.0,90,0.00,,,-99.99,,2013-01-30 13:32:00,
2013-01-30 05:42:00,43.0,41.0,-100.00,ESE,108,2.0,-999.0,90,0.00,,,-99.99,,2013-01-30 13:42:00,
2013-01-30 06:02:00,39.0,38.0,-100.00,NW,324,2.0,-999.0,98,0.00,,,-99.99,,2013-01-30 14:02:00,
2013-01-30 06:11:00,39.0,38.0,-100.00,NW,324,2.0,-999.0,98,0.00,,,-99.99,,2013-01-30 14:11:00,
2013-01-30 06:22:00,39.0,38.0,-100.00,NW,324,2.0,-999.0,98,0.00,,,-99.99,,2013-01-30 14:22:00,
2013-01-30 06:32:00,39.0,38.0,-100.00,NW,324,2.0,-999.0,98,0.00,,,-99.99,,2013-01-30 14:32:00,
2013-01-30 06:41:00,39.0,38.0,-100.00,NW,324,2.0,-999.0,98,0.00,,,-99.99,,2013-01-30 14:41:00,
2013-01-30 07:03:00,38.0,38.0,-100.00,NW,312,3.0,-999.0,98,0.00,,,-99.99,,2013-01-30 15:03:00,
2013-01-30 07:12:00,38.0,38.0,-100.00,NW,312,3.0,-999.0,98,0.00,,,-99.99,,2013-01-30 15:12:00,
2013-01-30 07:22:00,38.0,38.0,-100.00,NW,312,3.0,-999.0,98,0.00,,,-99.99,,2013-01-30 15:22:00,
2013-01-30 07:32:00,38.0,38.0,-100.00,NW,312,3.0,-999.0,98,0.00,,,-99.99,,2013-01-30 15:32:00,
2013-01-30 07:42:00,38.0,38.0,-100.00,NW,312,3.0,-999.0,98,0.00,,,-99.99,,2013-01-30 15:42:00,
2013-01-30 08:03:00,39.0,39.0,-100.00,NNE,24,1.0,-999.0,99,0.00,,,-99.99,,2013-01-30 16:03:00,
2013-01-30 08:12:00,39.0,39.0,-100.00,NNE,24,1.0,-999.0,99,0.00,,,-99.99,,2013-01-30 16:12:00,
2013-01-30 08:22:00,39.0,39.0,-100.00,NNE,24,1.0,-999.0,99,0.00,,,-99.99,,2013-01-30 16:22:00,
2013-01-30 08:32:00,39.0,39.0,-100.00,NNE,24,1.0,-999.0,99,0.00,,,-99.99,,2013-01-30 16:32:00,
2013-01-30 08:41:00,39.0,39.0,-100.00,NNE,24,1.0,-999.0,99,0.00,,,-99.99,,2013-01-30 16:41:00,
2013-01-30 09:02:00,45.0,43.0,-100.00,NNW,330,2.0,-999.0,93,0.00,,,-99.99,,2013-01-30 17:02:00,
2013-01-30 09:12:00,45.0,43.0,-100.00,NNW,330,2.0,-999.0,93,0.00,,,-99.99,,2013-01-30 17:12:00,
2013-01-30 09:22:00,45.0,43.0,-100.00,NNW,330,2.0,-999.0,93,0.00,,,-99.99,,2013-01-30 17:22:00,
2013-01-30 09:31:00,45.0,43.0,-100.00,NNW,330,2.0,-999.0,93,0.00,,,-99.99,,2013-01-30 17:31:00,
2013-01-30 09:41:00,45.0,43.0,-100.00,NNW,330,2.0,-999.0,93,0.00,,,-99.99,,2013-01-30 17:41:00,
2013-01-30 10:02:00,52.0,42.0,-100.00,East,86,4.0,-999.0,70,0.00,,,-99.99,,2013-01-30 18:02:00,
2013-01-30 10:12:00,52.0,42.0,-100.00,East,86,4.0,-999.0,70,0.00,,,-99.99,,2013-01-30 18:12:00,
2013-01-30 10:22:00,52.0,42.0,-100.00,East,86,4.0,-999.0,70,0.00,,,-99.99,,2013-01-30 18:22:00,
2013-01-30 10:32:00,52.0,42.0,-100.00,East,86,4.0,-999.0,70,0.00,,,-99.99,,2013-01-30 18:32:00,
2013-01-30 10:42:00,52.0,42.0,-100.00,East,86,4.0,-999.0,70,0.00,,,-99.99,,2013-01-30 18:42:00,
2013-01-30 11:02:00,53.0,43.0,-100.00,ESE,106,3.0,-999.0,68,0.00,,,-99.99,,2013-01-30 19:02:00,
2013-01-30 11:12:00,53.0,43.0,-100.00,ESE,106,3.0,-999.0,68,0.00,,,-99.99,,2013-01-30 19:12:00,
2013-01-30 11:22:00,53.0,43.0,-100.00,ESE,106,3.0,-999.0,68,0.00,,,-99.99,,2013-01-30 19:22:00,
2013-01-30 11:32:00,53.0,43.0,-100.00,ESE,106,3.0,-999.0,68,0.00,,,-99.99,,2013-01-30 19:32:00,
2013-01-30 11:42:00,53.0,43.0,-100.00,ESE,106,3.0,-999.0,68,0.00,,,-99.99,,2013-01-30 19:42:00,
2013-01-30 12:03:00,57.0,43.0,-100.00,NE,44,3.0,-999.0,58,0.00,,,-99.99,,2013-01-30 20:03:00,
2013-01-30 12:11:00,57.0,43.0,-100.00,NE,44,3.0,-999.0,58,0.00,,,-99.99,,2013-01-30 20:11:00,
2013-01-30 12:22:00,57.0,43.0,-100.00,NE,44,3.0,-999.0,58,0.00,,,-99.99,,2013-01-30 20:22:00,
2013-01-30 12:32:00,57.0,43.0,-100.00,NE,44,3.0,-999.0,58,0.00,,,-99.99,,2013-01-30 20:32:00,
2013-01-30 12:41:00,57.0,43.0,-100.00,NE,44,3.0,-999.0,58,0.00,,,-99.99,,2013-01-30 20:41:00,
2013-01-30 13:03:00,60.0,44.0,-100.00,ESE,119,2.0,-999.0,57,0.00,,,-99.99,,2013-01-30 21:03:00,
2013-01-30 13:12:00,60.0,44.0,-100.00,ESE,119,2.0,-999.0,57,0.00,,,-99.99,,2013-01-30 21:12:00,
2013-01-30 13:22:00,60.0,44.0,-100.00,ESE,119,2.0,-999.0,57,0.00,,,-99.99,,2013-01-30 21:22:00,
2013-01-30 13:31:00,60.0,44.0,-100.00,ESE,119,2.0,-999.0,57,0.00,,,-99.99,,2013-01-30 21:31:00,
2013-01-30 13:41:00,60.0,44.0,-100.00,ESE,119,2.0,-999.0,57,0.00,,,-99.99,,2013-01-30 21:41:00,
2013-01-30 14:02:00,59.0,44.0,-100.00,SSW,213,5.0,-999.0,56,0.00,,,-99.99,,2013-01-30 22:02:00,
2013-01-30 14:11:00,59.0,44.0,-100.00,SSW,213,5.0,-999.0,56,0.00,,,-99.99,,2013-01-30 22:11:00,
2013-01-30 14:22:00,59.0,44.0,-100.00,SSW,213,5.0,-999.0,56,0.00,,,-99.99,,2013-01-30 22:22:00,
2013-01-30 14:32:00,59.0,44.0,-100.00,SSW,213,5.0,-999.0,56,0.00,,,-99.99,,2013-01-30 22:32:00,
2013-01-30 14:41:00,59.0,44.0,-100.00,SSW,213,5.0,-999.0,56,0.00,,,-99.99,,2013-01-30 22:41:00,
2013-01-30 15:02:00,60.0,44.0,-100.00,South,187,4.0,-999.0,55,0.00,,,-99.99,,2013-01-30 23:02:00,
2013-01-30 15:12:00,60.0,44.0,-100.00,South,187,4.0,-999.0,55,0.00,,,-99.99,,2013-01-30 23:12:00,
2013-01-30 15:22:00,60.0,44.0,-100.00,South,187,4.0,-999.0,55,0.00,,,-99.99,,2013-01-30 23:22:00,
2013-01-30 15:32:00,60.0,44.0,-100.00,South,187,4.0,-999.0,55,0.00,,,-99.99,,2013-01-30 23:32:00,
2013-01-30 15:42:00,60.0,44.0,-100.00,South,187,4.0,-999.0,55,0.00,,,-99.99,,2013-01-30 23:42:00,
2013-01-30 16:02:00,60.0,44.0,-100.00,SSW,213,5.0,-999.0,54,0.00,,,-99.99,,2013-01-31 00:02:00,
2013-01-30 16:11:00,60.0,44.0,-100.00,SSW,213,5.0,-999.0,54,0.00,,,-99.99,,2013-01-31 00:11:00,
2013-01-30 16:21:00,60.0,44.0,-100.00,SSW,213,5.0,-999.0,54,0.00,,,-99.99,,2013-01-31 00:21:00,
2013-01-30 16:31:00,60.0,44.0,-100.00,SSW,213,5.0,-999.0,54,0.00,,,-99.99,,2013-01-31 00:31:00,
2013-01-30 16:41:00,60.0,44.0,-100.00,SSW,213,5.0,-999.0,54,0.00,,,-99.99,,2013-01-31 00:41:00,
2013-01-30 17:02:00,60.0,43.0,-100.00,SW,226,2.0,-999.0,54,0.00,,,-99.99,,2013-01-31 01:02:00,
2013-01-30 17:11:00,60.0,43.0,-100.00,SW,226,2.0,-999.0,54,0.00,,,-99.99,,2013-01-31 01:11:00,
2013-01-30 17:21:00,60.0,43.0,-100.00,SW,226,2.0,-999.0,54,0.00,,,-99.99,,2013-01-31 01:21:00,
2013-01-30 17:31:00,60.0,43.0,-100.00,SW,226,2.0,-999.0,54,0.00,,,-99.99,,2013-01-31 01:31:00,
2013-01-30 17:41:00,60.0,43.0,-100.00,SW,226,2.0,-999.0,54,0.00,,,-99.99,,2013-01-31 01:41:00,
2013-01-30 18:01:00,56.0,44.0,-100.00,NE,34,1.0,-999.0,63,0.00,,,-99.99,,2013-01-31 02:01:00,
2013-01-30 18:11:00,56.0,44.0,-100.00,NE,34,1.0,-999.0,63,0.00,,,-99.99,,2013-01-31 02:11:00,
2013-01-30 18:21:00,56.0,44.0,-100.00,NE,34,1.0,-999.0,63,0.00,,,-99.99,,2013-01-31 02:21:00,
2013-01-30 18:32:00,56.0,44.0,-100.00,NE,34,1.0,-999.0,63,0.00,,,-99.99,,2013-01-31 02:32:00,
2013-01-30 18:41:00,56.0,44.0,-100.00,NE,34,1.0,-999.0,63,0.00,,,-99.99,,2013-01-31 02:41:00,
2013-01-30 19:02:00,51.0,43.0,-100.00,NE,41,2.0,-999.0,72,0.00,,,-99.99,,2013-01-31 03:02:00,
2013-01-30 19:11:00,51.0,43.0,-100.00,NE,41,2.0,-999.0,72,0.00,,,-99.99,,2013-01-31 03:11:00,
2013-01-30 19:21:00,51.0,43.0,-100.00,NE,41,2.0,-999.0,72,0.00,,,-99.99,,2013-01-31 03:21:00,
2013-01-30 19:32:00,51.0,43.0,-100.00,NE,41,2.0,-999.0,72,0.00,,,-99.99,,2013-01-31 03:32:00,
2013-01-30 19:41:00,51.0,43.0,-100.00,NE,41,2.0,-999.0,72,0.00,,,-99.99,,2013-01-31 03:41:00,
2013-01-30 20:02:00,49.0,42.0,-100.00,NNW,329,2.0,-999.0,77,0.00,,,-99.99,,2013-01-31 04:02:00,
2013-01-30 20:11:00,49.0,42.0,-100.00,NNW,329,2.0,-999.0,77,0.00,,,-99.99,,2013-01-31 04:11:00,
2013-01-30 20:22:00,49.0,42.0,-100.00,NNW,329,2.0,-999.0,77,0.00,,,-99.99,,2013-01-31 04:22:00,
2013-01-30 20:31:00,49.0,42.0,-100.00,NNW,329,2.0,-999.0,77,0.00,,,-99.99,,2013-01-31 04:31:00,
2013-01-30 20:41:00,49.0,42.0,-100.00,NNW,329,2.0,-999.0,77,0.00,,,-99.99,,2013-01-31 04:41:00,
2013-01-30 21:03:00,45.0,43.0,-100.00,North,355,2.0,-999.0,91,0.00,,,-99.99,,2013-01-31 05:03:00,
2013-01-30 21:11:00,45.0,43.0,-100.00,North,355,2.0,-999.0,91,0.00,,,-99.99,,2013-01-31 05:11:00,
2013-01-30 21:21:00,45.0,43.0,-100.00,North,355,2.0,-999.0,91,0.00,,,-99.99,,2013-01-31 05:21:00,
2013-01-30 21:31:00,45.0,43.0,-100.00,North,355,2.0,-999.0,91,0.00,,,-99.99,,2013-01-31 05:31:00,
2013-01-30 21:41:00,45.0,43.0,-100.00,North,355,2.0,-999.0,91,0.00,,,-99.99,,2013-01-31 05:41:00,